Location: Newark
(26.7500°S, 133.2500°E)
Time: 10:42:35
(UTC+00:00)

LightSail 2 - Visible Passes

Search period start: 12 December 2019 00:00
Search period end: 22 December 2019 00:00
Orbit: 696 x 730 km, 24.0° (Epoch: 11 December)

Date Brightness Start Highest point End Pass type
(mag) Time Alt. Az. Time Alt. Az. Time Alt. Az.
12 Dec 5.1 18:19:39 48° WNW 18:20:49 64° N 18:25:54 10° ENE visible
13 Dec 6.5 17:25:15 29° ENE 17:25:15 29° ENE 17:27:47 10° E visible
13 Dec 5.4 19:04:14 16° W 19:08:06 48° NNW 19:13:02 10° ENE visible
14 Dec 5.1 18:09:57 56° NNW 18:10:03 56° N 18:15:02 10° ENE visible
15 Dec 7.3 17:15:49 17° ENE 17:15:49 17° ENE 17:16:59 10° ENE visible
15 Dec 5.7 18:54:48 23° WNW 18:57:15 36° NNW 19:01:54 10° NE visible
16 Dec 6.1 18:00:51 33° NNE 18:00:51 33° NNE 18:04:02 10° ENE visible
16 Dec 6.6 19:40:47 10° WNW 19:44:21 19° NNW 19:47:55 10° NNE visible
17 Dec 7.2 11:41:30 10° NNW 11:42:21 13° NNW 11:42:21 13° NNW visible
17 Dec 6.1 18:46:02 25° NNW 18:46:20 25° NNW 18:50:27 10° NE visible
18 Dec 6.8 10:44:17 10° N 10:47:13 15° NNE 10:48:47 13° NE visible
18 Dec 7.6 12:27:34 10° NW 12:27:49 11° NW 12:27:49 11° NW visible
18 Dec 7.4 17:52:22 12° NE 17:52:22 12° NE 17:52:47 10° NE visible
18 Dec 7.0 19:31:41 10° NW 19:33:21 11° NNW 19:35:00 10° N visible
19 Dec 6.0 11:29:45 10° NW 11:34:07 30° NNE 11:34:07 30° NNE visible
19 Dec 7.2 18:37:50 12° N 18:37:50 12° N 18:38:24 10° NNE visible
20 Dec 6.3 10:32:04 10° NNW 10:36:11 24° NNE 10:40:16 10° ENE visible
20 Dec 6.3 12:16:23 10° WNW 12:19:16 31° NW 12:19:16 31° NW visible
21 Dec 5.6 11:18:23 10° WNW 11:23:17 42° NNE 11:25:14 30° ENE visible
21 Dec 7.5 13:03:31 10° WNW 13:04:13 14° WNW 13:04:13 14° WNW visible
